Geraldton, Ontario

9:30 PM EDT on March 29, 2017 (GMT -0400)
Greenstone Regional

Weather History for CYGQ - August, 2013

Change the Weather History Date:

Tuesday, August 20, 2013

  Actual Average Record
Temperature  
Mean Temperature 74 °F -  
Max Temperature 87 °F 63 °F 87 °F (2013)
Min Temperature 61 °F 44 °F 39 °F (2007)
Cooling Degree Days 9    
Growing Degree Days 24 (Base 50)    
Moisture  
Dew Point 65 °F    
Average Humidity 75    
Maximum Humidity 94    
Minimum Humidity 45    
Precipitation  
Precipitation 0.00 in - - ()
Sea Level Pressure  
Sea Level Pressure 29.80 in    
Wind  
Wind Speed 8 mph ()    
Max Wind Speed 18 mph    
Max Gust Speed 25 mph    
Visibility 14.5 miles    
Events      
Averages and records for this station are not official NWS values.
T = Trace of Precipitation, MM = Missing Value Source: Averaged Metar Reports

Daily Weather History Graph

Daily Weather History Graph

Search for Another Location

Airport or City:

Trip Planner

Search our weather history database for the weather conditions in past years. The results will help you decide how hot, cold, wet, or windy it might be!

Date:

Astronomy

Aug. 20, 2013 Rise Set
Actual Time 6:45 AM EDT 8:55 PM EDT
Civil Twilight 6:10 AM EDT 9:30 PM EDT
Nautical Twilight 5:27 AM EDT 10:13 PM EDT
Astronomical Twilight 4:37 AM EDT 11:02 PM EDT
Moon 8:19 PM EDT (8/20) 6:17 AM EDT (8/20)
Length of Visible Light 15h 19m
Length of Day
14h 09m
Full, 100% of the Moon is Illuminated
Aug 20
Full
Aug 20
Full
Aug 28
Last Quarter
Sep 5
New
Sep 12
First Quarter

Hourly Weather History & Observations

Time (EDT) Temp. Heat Index Dew Point Humidity Pressure Visibility Wind Dir Wind Speed Gust Speed Precip Events Conditions
12:00 AM 68.0 °F - 64.4 °F 88% 29.83 in 15.0 mi SSW 8.1 mph - N/A   Partly Cloudy
1:00 AM 66.2 °F - 64.4 °F 94% 29.83 in 15.0 mi SSW 8.1 mph - N/A   Clear
2:00 AM 66 °F - 63 °F 88% 29.83 in 15 mi SSW 6.9 mph - -  
2:00 AM 66.2 °F - 62.6 °F 88% 29.83 in 15.0 mi SW 6.9 mph - N/A   Clear
3:00 AM 66.2 °F - 62.6 °F 88% 29.82 in 15.0 mi SSW 4.6 mph - N/A   Clear
4:00 AM 62.6 °F - 60.8 °F 94% 29.82 in 15.0 mi Calm Calm - N/A   Clear
5:00 AM 62.6 °F - 60.8 °F 94% 29.82 in 15.0 mi SSW 2.3 mph - N/A   Clear
6:00 AM 62.6 °F - 60.8 °F 94% 29.82 in 12.0 mi SSW 2.3 mph - N/A   Partly Cloudy
7:00 AM 62.6 °F - 60.8 °F 94% 29.82 in 12.0 mi SW 3.5 mph - N/A   Partly Cloudy
8:00 AM 65 °F - 63 °F 89% 29.83 in 15 mi SSW 2.3 mph - -  
8:00 AM 64.4 °F - 62.6 °F 94% 29.83 in 15.0 mi SSW 4.6 mph - N/A   Clear
9:00 AM 69.8 °F - 64.4 °F 83% 29.83 in 15.0 mi WSW 8.1 mph - N/A   Clear
10:00 AM 75.2 °F - 66.2 °F 73% 29.82 in 15.0 mi WSW 11.5 mph - N/A   Clear
11:00 AM 80.6 °F 82.7 °F 66.2 °F 61% 29.81 in 15.0 mi WSW 9.2 mph - N/A   Clear
12:00 PM 84.2 °F 87.3 °F 68.0 °F 58% 29.81 in 15.0 mi WSW 11.5 mph - N/A   Partly Cloudy
1:00 PM 84.2 °F 87.3 °F 68.0 °F 58% 29.81 in 15.0 mi SW 13.8 mph - N/A   Scattered Clouds
2:00 PM 85 °F - 67 °F 45% 29.80 in 15 mi WSW 11.5 mph - -   Partly Cloudy
2:00 PM 84.2 °F 86.6 °F 66.2 °F 55% 29.80 in 15.0 mi SW 18.4 mph - N/A   Scattered Clouds
3:00 PM 86.0 °F 88.2 °F 66.2 °F 51% 29.78 in 15.0 mi WSW 15.0 mph - N/A   Scattered Clouds
4:00 PM 84.2 °F 86.6 °F 66.2 °F 55% 29.77 in 15.0 mi South 18.4 mph 25.3 mph N/A   Scattered Clouds
5:00 PM 84.2 °F 87.3 °F 68.0 °F 58% 29.76 in 15.0 mi SW 13.8 mph 20.7 mph N/A   Scattered Clouds
6:00 PM 82.4 °F 84.6 °F 66.2 °F 58% 29.76 in 15.0 mi SSW 18.4 mph 25.3 mph N/A   Scattered Clouds
7:00 PM 80.6 °F 83.2 °F 68.0 °F 65% 29.76 in 15.0 mi SW 13.8 mph - N/A   Scattered Clouds
8:00 PM 78 °F - 67 °F 62% 29.77 in 15 mi SSW 16.1 mph - -   Scattered Clouds
8:00 PM 78.8 °F - 68.0 °F 69% 29.77 in 15.0 mi SSW 15.0 mph - N/A   Partly Cloudy
9:00 PM 75.2 °F - 66.2 °F 73% 29.78 in 12.0 mi SSW 15.0 mph - N/A   Scattered Clouds
10:00 PM 73.4 °F - 66.2 °F 78% 29.79 in 12.0 mi SSW 9.2 mph - N/A   Scattered Clouds
11:00 PM 71.6 °F - 66.2 °F 83% 29.78 in 12.0 mi SSW 11.5 mph - N/A   Scattered Clouds